{"data":{"norad_id":49294,"epoch":"2026-09-20T05:05:03.815808Z","epoch_age_seconds":50570,"freshness":"FRESH","line1":"1 49294U 21090R   26263.21184972  .00000006  00000+0 -18240-4 0  9998","line2":"2 49294  87.9145 255.4884 0002602  78.9750 281.1676 13.20772148243528","mean_motion":13.20772148,"eccentricity":0.0002602,"inclination_deg":87.9145,"raan_deg":255.4884,"arg_perigee_deg":78.975,"mean_anomaly_deg":281.1676,"bstar":-1.824e-5,"rev_number":24352,"period_min":109.0271325134,"perigee_km":1179.8050058038,"apogee_km":1183.7391824964,"semimajor_km":7559.9090941501,"source":"CELESTRAK","updated_at":"2026-09-20T09:00:44.671707Z"}}